Weather History for Oxford, CT

Change the Weather History Date:

Wednesday, February 12, 2014

  Actual Average Record
Temperature  
Mean Temperature 12 °F -  
Max Temperature 23 °F 34 °F 53 °F (1999)
Min Temperature 0 °F 19 °F 0 °F (2014)
Degree Days  
Heating Degree Days 54    
Moisture  
Dew Point -1 °F    
Average Humidity 55    
Maximum Humidity 68    
Minimum Humidity 33    
Precipitation  
Precipitation 0.00 in - - ()
Sea Level Pressure  
Sea Level Pressure 30.42 in    
Wind  
Wind Speed 5 mph (NE)    
Max Wind Speed 9 mph    
Max Gust Speed -    
Visibility 10 miles    
Events      
Averages and records for this station are not official NWS values.
T = Trace of Precipitation, MM = Missing Value Source: NWS Daily Summary

Daily Weather History Graph

Daily Weather History Graph

Search for Another Location

Airport:

Trip Planner

Search our weather history database for the weather conditions in past years. The results will help you decide how hot, cold, wet, or windy it might be!

Date:

Astronomy

Feb. 12, 2014 Rise Set
Actual Time 6:51 AM EST 5:22 PM EST
Civil Twilight 6:23 AM EST 5:51 PM EST
Nautical Twilight 5:50 AM EST 6:23 PM EST
Astronomical Twilight 5:18 AM EST 6:55 PM EST
Moon 3:33 PM EST (2/12) 5:07 AM EST (2/12)
Length of Visible Light 11h 28m
Length of Day
10h 30m
Waxing Gibbous, 95% of the Moon is Illuminated
Feb 12
Waxing Gibbous
Feb 14
Full
Feb 22
Last Quarter
Mar 1
New
Mar 8
First Quarter

Hourly Weather History & Observations

Time (EST) Temp. Windchill Dew Point Humidity Pressure Visibility Wind Dir Wind Speed Gust Speed Precip Events Conditions
12:15 AM 10.4 °F 2.2 °F -4.0 °F 52% 30.42 in 10.0 mi North 4.6 mph - N/A   Clear
12:35 AM 10.4 °F - -5.8 °F 48% 30.42 in 10.0 mi Calm Calm - N/A   Clear
12:55 AM 8.6 °F 2.0 °F -5.8 °F 52% 30.42 in 10.0 mi NNW 3.5 mph - N/A   Clear
1:15 AM 10.4 °F 0.8 °F -4.0 °F 52% 30.42 in 10.0 mi NNW 5.8 mph - N/A   Clear
1:35 AM 8.6 °F -3.7 °F -7.6 °F 48% 30.42 in 10.0 mi NNW 8.1 mph - N/A   Clear
1:55 AM 6.8 °F -0.1 °F -7.6 °F 52% 30.43 in 10.0 mi North 3.5 mph - N/A   Clear
2:15 AM 5.0 °F -4.1 °F -7.6 °F 56% 30.43 in 10.0 mi North 4.6 mph - N/A   Clear
2:35 AM 6.8 °F -6.9 °F -7.6 °F 52% 30.43 in 10.0 mi North 9.2 mph - N/A   Clear
2:55 AM 3.2 °F -11.3 °F -9.4 °F 56% 30.43 in 10.0 mi North 9.2 mph - N/A   Clear
3:15 AM 6.8 °F -5.9 °F -5.8 °F 56% 30.42 in 10.0 mi NNE 8.1 mph - N/A   Clear
3:35 AM 6.8 °F -5.9 °F -9.4 °F 48% 30.43 in 10.0 mi North 8.1 mph - N/A   Clear
3:55 AM 5.0 °F -8.1 °F -9.4 °F 52% 30.43 in 10.0 mi North 8.1 mph - N/A   Clear
4:15 AM 3.2 °F -10.3 °F -7.6 °F 61% 30.44 in 10.0 mi North 8.1 mph - N/A   Clear
4:35 AM 3.2 °F -10.3 °F -7.6 °F 61% 30.45 in 10.0 mi North 8.1 mph - N/A   Clear
4:55 AM 6.8 °F -2.0 °F -5.8 °F 56% 30.46 in 10.0 mi NNW 4.6 mph - N/A   Clear
5:15 AM 3.2 °F -7.8 °F -9.4 °F 56% 30.46 in 10.0 mi North 5.8 mph - N/A   Clear
5:35 AM 3.2 °F -9.1 °F -9.4 °F 56% 30.46 in 10.0 mi North 6.9 mph - N/A   Clear
5:55 AM -0.4 °F -12.0 °F -11.2 °F 60% 30.47 in 10.0 mi North 5.8 mph - N/A   Clear
6:45 AM 1.4 °F -6.2 °F -9.4 °F 61% 20.46 in 10.0 mi NNW 3.5 mph - N/A   Clear
7:45 AM 3.2 °F -7.8 °F -7.6 °F 61% 20.48 in 10.0 mi North 5.8 mph - N/A   Clear
8:45 AM 3.2 °F -7.8 °F -7.6 °F 61% 30.48 in 10.0 mi North 5.8 mph - N/A   Clear
9:45 AM 10.4 °F -1.5 °F -5.8 °F 48% 30.53 in 10.0 mi ENE 8.1 mph - N/A   Clear
10:45 AM 12.2 °F 1.7 °F -5.8 °F 45% 30.51 in 10.0 mi NE 6.9 mph - N/A   Clear
11:45 AM 17.6 °F 8.2 °F -4.0 °F 38% 30.51 in 10.0 mi NE 6.9 mph - N/A   Clear
12:47 PM 19.4 °F - -2.2 °F 39% 30.51 in 10.0 mi Calm Calm - N/A   Clear
1:40 PM 21.2 °F 12.6 °F -2.2 °F 36% 30.46 in 10.0 mi South 6.9 mph - N/A   Mostly Cloudy
1:50 PM 21.2 °F - -2.2 °F 36% 30.46 in 10.0 mi Calm Calm - N/A   Mostly Cloudy
2:52 PM 23.0 °F 15.8 °F -2.2 °F 33% 30.44 in 10.0 mi ESE 5.8 mph - N/A   Mostly Cloudy
3:45 PM 21.2 °F 11.7 °F -2.2 °F 36% 30.44 in 10.0 mi SSE 8.1 mph - N/A   Mostly Cloudy
4:45 PM 21.2 °F 13.6 °F -2.2 °F 36% 30.43 in 10.0 mi SSE 5.8 mph - N/A   Overcast
5:55 PM 17.6 °F 8.2 °F 5.0 °F 58% 30.45 in 10.0 mi South 6.9 mph - N/A   Scattered Clouds
6:36 PM 17.6 °F 10.7 °F 6.8 °F 63% 30.42 in 10.0 mi SE 4.6 mph - N/A   Mostly Cloudy
6:55 PM 17.6 °F 10.7 °F 6.8 °F 63% 30.41 in 10.0 mi SE 4.6 mph - N/A   Scattered Clouds
8:09 PM 17.6 °F - 6.8 °F 63% 30.38 in 10.0 mi Calm Calm - N/A   Mostly Cloudy
8:45 PM 17.6 °F - 8.6 °F 68% 30.39 in 10.0 mi Calm Calm - N/A   Mostly Cloudy
9:15 PM 17.6 °F 12.3 °F 8.6 °F 68% 30.37 in 10.0 mi East 3.5 mph - N/A   Overcast
9:35 PM 17.6 °F 12.3 °F 8.6 °F 68% 30.36 in 10.0 mi ENE 3.5 mph - N/A   Overcast
9:55 PM 19.4 °F 14.3 °F 10.4 °F 68% 30.36 in 10.0 mi East 3.5 mph - N/A   Overcast
10:15 PM 19.4 °F 12.8 °F 10.4 °F 68% 30.34 in 10.0 mi ENE 4.6 mph - N/A   Overcast
10:35 PM 19.4 °F 12.8 °F 10.4 °F 68% 30.32 in 10.0 mi ENE 4.6 mph - N/A   Mostly Cloudy
10:55 PM 19.4 °F 12.8 °F 10.4 °F 68% 30.32 in 10.0 mi ENE 4.6 mph - N/A   Mostly Cloudy
11:15 PM 19.4 °F 12.8 °F 10.4 °F 68% 30.30 in 10.0 mi ENE 4.6 mph - N/A   Mostly Cloudy
11:35 PM 19.4 °F 11.5 °F 10.4 °F 68% 30.30 in 10.0 mi ENE 5.8 mph - N/A   Overcast
11:55 PM 19.4 °F 11.5 °F 10.4 °F 68% 30.29 in 10.0 mi ENE 5.8 mph - N/A   Overcast